Stations météo

réclame
Mon MeteoGroup
Elsenborn, Belgique (6496): Température de l'air & dewpoint: 13.06.2019 11:00:00 - 19.06.2019 11:00:00 (CEST)Elsenborn, Belgique (6496): Vitesse du vent & gusts: 13.06.2019 11:00:00 - 19.06.2019 11:00:00 (CEST)Elsenborn, Belgique (6496): Direction du vent: 13.06.2019 11:00:00 - 19.06.2019 11:00:00 (CEST)Elsenborn, Belgique (6496): reduced air pressure: 13.06.2019 11:00:00 - 19.06.2019 11:00:00 (CEST)Elsenborn, Belgique (6496): visibility: 13.06.2019 11:00:00 - 19.06.2019 11:00:00 (CEST)
Date & Time tt [°C] td [°C] ff [km/h] ff [knt] fx [km/h] fx [knt] dd ppp [hPa] vv [km]
19.06.2019 11:00:00 19,2 13,8 18 10 - - SSW 1009,3 20
19.06.2019 10:00:00 21,2 13,1 18 10 40 21 SSW 1007,7 20
19.06.2019 09:00:00 21,7 12,7 11 6 22 12 SSW 1007,7 19
19.06.2019 08:00:00 20,6 12,9 11 6 - - S 1007,7 19
19.06.2019 07:00:00 14,8 12,9 4 2 7 4 N 1009,6 19
19.06.2019 06:00:00 13,0 11,6 4 2 11 6 N 1010,7 19
19.06.2019 05:00:00 10,4 9,4 4 2 - - N 1011,3 14
19.06.2019 04:00:00 10,0 9,2 4 2 0 0 N 1012,0 18
19.06.2019 03:00:00 10,3 9,6 4 2 4 2 N 1012,5 14
19.06.2019 02:00:00 11,1 10,2 4 2 - - N 1012,6 18
19.06.2019 01:00:00 11,7 10,5 4 2 4 2 N 1013,0 18
19.06.2019 00:00:00 13,6 11,3 4 2 4 2 N 1012,8 20
18.06.2019 23:00:00 14,8 12,1 4 2 - - N 1013,1 20
18.06.2019 22:00:00 18,3 12,0 7 4 11 6 N 1012,5 20
18.06.2019 21:00:00 20,8 12,1 4 2 11 6 N 1011,7 20
18.06.2019 20:00:00 23,2 11,4 7 4 - - S 1011,2 20
18.06.2019 19:00:00 24,2 9,2 4 2 11 6 N 1011,2 20
18.06.2019 18:00:00 23,8 11,1 4 2 18 10 N 1011,7 20
18.06.2019 17:00:00 24,1 12,6 7 4 - - W 1012,0 20
18.06.2019 16:00:00 24,4 11,8 7 4 22 12 SSW 1012,2 20
18.06.2019 15:00:00 24,6 11,5 7 4 22 12 S 1012,3 20
18.06.2019 14:00:00 24,2 11,2 7 4 - - S 1012,6 20
18.06.2019 13:00:00 23,2 12,3 7 4 22 12 SE 1013,2 20
18.06.2019 12:00:00 23,4 11,5 4 2 14 8 N 1013,5 20
18.06.2019 11:00:00 22,2 11,8 4 2 - - N 1014,2 18
18.06.2019 10:00:00 21,4 8,5 4 2 7 4 N 1014,7 20
18.06.2019 09:00:00 21,5 10,8 4 2 4 2 N 1015,0 20
18.06.2019 08:00:00 16,0 12,3 4 2 - - N 1016,2 20
18.06.2019 07:00:00 11,2 9,0 4 2 7 4 N 1017,3 20
18.06.2019 06:00:00 7,5 7,0 4 2 4 2 N 1018,2 20
18.06.2019 05:00:00 7,6 7,0 4 2 - - N 1018,7 16
18.06.2019 04:00:00 8,1 7,4 4 2 4 2 N 1018,7 15
18.06.2019 03:00:00 8,9 8,2 4 2 4 2 N 1018,8 19
18.06.2019 02:00:00 9,6 8,7 4 2 - - N 1019,1 19
18.06.2019 01:00:00 10,7 9,5 4 2 0 0 N 1019,1 11
18.06.2019 00:00:00 11,7 10,1 4 2 4 2 N 1018,8 20
17.06.2019 23:00:00 13,1 10,7 4 2 - - N 1018,6 20
17.06.2019 22:00:00 15,5 10,8 4 2 7 4 N 1018,0 20
17.06.2019 21:00:00 19,6 10,2 7 4 14 8 N 1017,0 20
17.06.2019 20:00:00 22,1 8,7 7 4 - - SSE 1016,6 20
17.06.2019 19:00:00 23,0 7,9 4 2 14 8 N 1016,6 20
17.06.2019 18:00:00 22,7 8,0 7 4 14 8 SSE 1016,8 20
17.06.2019 17:00:00 22,2 8,1 4 2 - - N 1017,3 20
17.06.2019 16:00:00 23,1 8,9 7 4 22 12 SE 1017,5 20
17.06.2019 15:00:00 22,1 10,2 4 2 18 10 N 1018,2 20
17.06.2019 14:00:00 22,2 9,3 11 6 - - SW 1018,6 20
17.06.2019 13:00:00 20,9 8,8 7 4 18 10 ESE 1019,2 20
17.06.2019 12:00:00 20,6 7,6 7 4 18 10 SSW 1019,7 19
17.06.2019 11:00:00 19,5 9,2 4 2 - - N 1020,0 20
17.06.2019 10:00:00 18,2 9,8 11 6 22 12 SSE 1020,7 20
17.06.2019 09:00:00 18,0 10,7 11 6 18 10 SE 1020,8 20
17.06.2019 08:00:00 15,3 11,7 4 2 - - N 1021,5 20
17.06.2019 07:00:00 10,2 8,7 4 2 4 2 N 1022,7 20
17.06.2019 06:00:00 5,4 5,1 4 2 4 2 N 1024,2 20
17.06.2019 05:00:00 5,3 4,9 4 2 - - N 1024,2 20
17.06.2019 04:00:00 5,6 5,3 4 2 4 2 N 1024,2 20
17.06.2019 03:00:00 6,0 5,5 4 2 4 2 N 1024,2 20
17.06.2019 02:00:00 6,6 6,1 4 2 - - N 1024,2 18
17.06.2019 01:00:00 7,4 6,8 4 2 7 4 N 1024,0 19
17.06.2019 00:00:00 8,6 8,0 4 2 4 2 N 1023,7 20
16.06.2019 23:00:00 10,1 9,0 4 2 - - N 1023,2 20
16.06.2019 22:00:00 12,3 9,7 4 2 7 4 N 1022,6 20
16.06.2019 21:00:00 15,8 9,6 4 2 11 6 N 1021,5 20
16.06.2019 20:00:00 17,7 8,8 7 4 - - W 1021,0 20
16.06.2019 19:00:00 17,7 8,7 11 6 18 10 SW 1020,7 20
16.06.2019 18:00:00 18,6 9,6 4 2 11 6 N 1020,5 20
16.06.2019 17:00:00 15,5 10,6 7 4 - - S 1021,5 20
16.06.2019 16:00:00 17,0 9,5 7 4 22 12 W 1021,2 19
16.06.2019 15:00:00 17,7 9,5 11 6 25 14 WSW 1020,7 20
16.06.2019 14:00:00 16,6 9,3 18 10 - - WSW 1021,2 20
16.06.2019 13:00:00 16,9 8,7 18 10 29 16 SW 1021,0 20
16.06.2019 12:00:00 15,5 9,9 14 8 25 14 WSW 1021,2 20
16.06.2019 11:00:00 15,6 9,6 11 6 - - SW 1020,7 20
16.06.2019 10:00:00 15,0 9,3 7 4 25 14 WSW 1020,5 20
16.06.2019 09:00:00 14,5 8,8 11 6 25 14 WSW 1020,2 20
16.06.2019 08:00:00 13,1 9,1 7 4 - - SW 1020,2 20
16.06.2019 07:00:00 11,1 9,3 4 2 4 2 N 1020,6 20
16.06.2019 06:00:00 7,2 6,9 4 2 4 2 N 1021,5 20
16.06.2019 05:00:00 7,8 7,1 4 2 - - N 1020,8 17
16.06.2019 04:00:00 8,8 8,3 4 2 7 4 N 1020,3 14
16.06.2019 03:00:00 10,5 9,2 4 2 7 4 N 1019,7 20
16.06.2019 02:00:00 11,1 9,9 4 2 - - N 1019,7 20
16.06.2019 01:00:00 11,8 10,7 4 2 4 2 N 1019,3 20
16.06.2019 00:00:00 11,6 10,6 0 0 4 2 N 1018,8 20
15.06.2019 23:00:00 12,7 10,5 4 2 - - N 1017,7 20
15.06.2019 22:00:00 13,6 10,8 4 2 7 4 N 1017,2 20
15.06.2019 21:00:00 15,8 10,2 4 2 18 10 N 1016,2 20
15.06.2019 20:00:00 18,1 9,4 11 6 - - W 1015,3 20
15.06.2019 19:00:00 18,1 9,1 11 6 18 10 SW 1015,3 20
15.06.2019 18:00:00 20,0 9,2 11 6 32 18 WSW 1015,0 19
15.06.2019 17:00:00 19,2 8,3 14 8 - - W 1015,1 20
15.06.2019 16:00:00 19,5 8,6 14 8 29 16 WSW 1015,1 20
15.06.2019 15:00:00 18,7 8,9 18 10 40 21 W 1015,1 18
15.06.2019 14:00:00 17,6 10,3 14 8 - - W 1015,2 20
15.06.2019 13:00:00 17,1 12,3 18 10 32 18 WSW 1014,7 20
15.06.2019 12:00:00 15,1 13,4 14 8 32 18 W 1014,3 20
15.06.2019 11:00:00 15,0 13,1 14 8 - - W 1013,8 20
15.06.2019 10:00:00 14,6 12,6 18 10 36 19 W 1013,2 10
15.06.2019 09:00:00 13,5 13,0 18 10 32 18 WSW 1012,6 19
15.06.2019 08:00:00 13,6 13,4 11 6 - - SW 1011,7 6
15.06.2019 07:00:00 13,3 13,3 4 2 11 6 N 1011,2 7
15.06.2019 06:00:00 13,3 13,3 7 4 18 10 WSW 1011,5 3,7
15.06.2019 05:00:00 13,3 13,2 15 8 - - SW 1011,5 3,5
15.06.2019 04:00:00 13,3 13,3 4 2 18 10 N 1010,6 10
15.06.2019 03:00:00 13,3 13,0 4 2 11 6 N 1011,2 6
15.06.2019 02:00:00 13,3 13,0 5 3 - - E 1011,0 9
15.06.2019 01:00:00 13,8 13,4 2 1 4 2 - 1012,1 7
15.06.2019 00:00:00 14,2 13,7 4 2 7 4 N 1013,6 13
14.06.2019 23:00:00 15,0 13,0 4 2 - - N 1013,0 20
14.06.2019 22:00:00 16,1 11,6 4 2 11 6 N 1012,3 20
14.06.2019 21:00:00 18,1 10,6 4 2 14 8 N 1012,2 20
14.06.2019 20:00:00 19,6 10,0 7 4 - - SSE 1012,1 20
14.06.2019 19:00:00 21,5 10,1 14 8 25 14 SE 1012,0 20
14.06.2019 18:00:00 21,9 9,2 7 4 22 12 S 1012,1 20
14.06.2019 17:00:00 21,9 10,1 7 4 - - SW 1012,5 20
14.06.2019 16:00:00 22,8 9,8 14 8 29 16 S 1012,7 20
14.06.2019 15:00:00 21,6 8,6 14 8 29 16 SSW 1013,5 20
14.06.2019 14:00:00 21,1 9,3 14 8 - - S 1014,0 20
14.06.2019 13:00:00 20,6 9,5 7 4 25 14 SW 1014,3 20
14.06.2019 12:00:00 18,3 9,1 11 6 18 10 S 1014,7 20
14.06.2019 11:00:00 16,9 8,7 7 4 - - S 1014,8 20
14.06.2019 10:00:00 16,2 8,8 7 4 22 12 WSW 1015,3 20
14.06.2019 09:00:00 15,3 8,1 11 6 18 10 SW 1015,1 20
14.06.2019 08:00:00 13,3 9,1 4 2 - - N 1014,6 20
14.06.2019 07:00:00 7,6 6,6 4 2 0 0 N 1015,2 20
14.06.2019 06:00:00 5,6 5,4 4 2 4 2 N 1015,6 17
14.06.2019 05:00:00 4,8 4,3 4 2 - - N 1015,7 18
14.06.2019 04:00:00 5,0 4,7 2 1 7 4 - 1015,7 10
14.06.2019 03:00:00 6,0 5,6 4 2 7 4 N 1016,1 18
14.06.2019 02:00:00 7,1 6,6 0 0 - - N 1016,2 10
14.06.2019 01:00:00 8,6 8,2 4 2 7 4 N 1016,0 19
14.06.2019 00:00:00 10,0 9,0 4 2 11 6 N 1015,7 20
13.06.2019 23:00:00 11,0 8,6 8 4 - - S 1015,0 5
13.06.2019 22:00:00 12,8 8,0 7 4 32 18 S 1014,2 20
13.06.2019 21:00:00 13,3 8,0 11 6 25 14 S 1013,6 20
13.06.2019 20:00:00 13,6 8,2 11 6 - - S 1013,2 20
13.06.2019 19:00:00 12,8 9,2 11 6 40 21 SW 1014,1 18
13.06.2019 18:00:00 15,8 6,0 22 12 47 25 SW 1012,7 20
13.06.2019 17:00:00 17,3 5,8 22 12 - - SW 1012,0 20
13.06.2019 16:00:00 17,5 5,3 22 12 40 21 SSW 1012,1 19
13.06.2019 15:00:00 15,3 6,0 18 10 40 21 SSW 1012,6 20
13.06.2019 14:00:00 15,7 5,9 18 10 - - SSW 1012,7 20
13.06.2019 13:00:00 14,1 6,6 18 10 36 19 SW 1013,1 20
13.06.2019 12:00:00 14,3 6,3 25 14 43 23 SSW 1012,7 19
13.06.2019 11:00:00 12,8 7,0 14 8 - - SW 1013,3 20

tt = Température de l'air
td = dewpoint
ff = Vitesse du vent
fx = gusts
dd = Direction du vent
ppp = reduced air pressure
vv = visibility

stations d'obs. à proximité